KAP03 TISX-

Flight info

Callsign KAP03
Flight time N/A
Altitude
Route
Aircraft

Departure

Time 2026-04-22 23:49
Airport Henry E. Rohlsen Airport (TISX)

Arrival

Time N/A
Airport -
Time Latitude Longitude Altitude Speed Heading
2026-04-22 23:49 17.78319 -64.93784 4469 ft 160 kts 308°
2026-04-22 23:49 17.78954 -64.94801 4477 ft 173 kts 307°
2026-04-22 23:50 17.79629 -64.95885 4477 ft 181 kts 307°
2026-04-22 23:50 17.80329 -64.97013 4476 ft 187 kts 307°
2026-04-22 23:50 17.81044 -64.98164 4474 ft 190 kts 306°
2026-04-22 23:50 17.81769 -64.99331 4478 ft 191 kts 307°
2026-04-22 23:51 17.82500 -65.00509 4477 ft 194 kts 306°
2026-04-22 23:51 17.83237 -65.01698 4477 ft 195 kts 306°
2026-04-22 23:51 17.83977 -65.02892 4475 ft 195 kts 306°
2026-04-22 23:51 17.84721 -65.04087 4475 ft 195 kts 306°
2026-04-22 23:52 17.85461 -65.05278 4476 ft 195 kts 307°
2026-04-22 23:52 17.86192 -65.06459 4475 ft 196 kts 307°
2026-04-22 23:52 17.86937 -65.07658 4475 ft 197 kts 306°
2026-04-22 23:52 17.87684 -65.08863 4474 ft 197 kts 307°
2026-04-22 23:53 17.88432 -65.10070 4474 ft 197 kts 307°
2026-04-22 23:53 17.89178 -65.11274 4474 ft 196 kts 307°
2026-04-22 23:53 17.89923 -65.12475 4473 ft 196 kts 307°
2026-04-22 23:53 17.90666 -65.13673 4473 ft 195 kts 306°
2026-04-22 23:54 17.91410 -65.14874 4473 ft 195 kts 306°
2026-04-22 23:54 17.92149 -65.16068 4470 ft 195 kts 307°
2026-04-22 23:54 17.92888 -65.17261 4470 ft 195 kts 307°
2026-04-22 23:54 17.93627 -65.18455 4470 ft 195 kts 306°
2026-04-22 23:55 17.94367 -65.19648 4470 ft 195 kts 306°
2026-04-22 23:55 17.95106 -65.20843 4470 ft 195 kts 306°
2026-04-22 23:55 17.95847 -65.22039 4470 ft 195 kts 306°
2026-04-22 23:55 17.96578 -65.23221 4470 ft 195 kts 307°
2026-04-22 23:56 17.97318 -65.24417 4469 ft 196 kts 306°
2026-04-22 23:56 17.98060 -65.25615 4469 ft 196 kts 306°
2026-04-22 23:56 17.98802 -65.26816 4470 ft 196 kts 307°
2026-04-22 23:56 17.99544 -65.28015 4470 ft 196 kts 306°
2026-04-22 23:57 18.00287 -65.29215 4471 ft 196 kts 307°
2026-04-22 23:57 18.01031 -65.30421 4475 ft 196 kts 307°
2026-04-22 23:57 18.01774 -65.31623 4477 ft 196 kts 306°
2026-04-22 23:57 18.02515 -65.32823 4477 ft 195 kts 306°
2026-04-22 23:58 18.03254 -65.34019 4477 ft 195 kts 306°
2026-04-22 23:58 18.03992 -65.35212 4473 ft 195 kts 306°
2026-04-22 23:58 18.04728 -65.36404 4472 ft 194 kts 306°
2026-04-22 23:58 18.05462 -65.37594 4471 ft 194 kts 306°
2026-04-22 23:59 18.06187 -65.38767 4470 ft 194 kts 306°
2026-04-22 23:59 18.06929 -65.39969 4470 ft 194 kts 306°
2026-04-22 23:59 18.07653 -65.41142 4470 ft 194 kts 306°
2026-04-22 23:59 18.08385 -65.42328 4469 ft 194 kts 306°